timestamp,wind_dir_avg,wind_spd_max_dir,wind_spd_avg,wind_spd_gust,battery_voltage,lat,long
2019-01-14 00:00:00+00:00,291.0,287.0,6.77,7.8,,47.59359,-54.27349
2019-01-14 00:10:00+00:00,297.0,306.0,6.14,7.17,,47.59359,-54.27349
2019-01-14 00:20:00+00:00,293.0,290.0,5.47,6.45,,47.59359,-54.27349
2019-01-14 00:30:00+00:00,291.0,281.0,6.14,7.62,,47.59359,-54.27349
2019-01-14 00:40:00+00:00,301.0,298.0,8.46,9.71,,47.59359,-54.27349
2019-01-14 00:50:00+00:00,300.0,298.0,7.38,8.36,,47.59359,-54.27349
2019-01-14 01:00:00+00:00,303.0,311.0,8.73,10.48,,47.59359,-54.27349
2019-01-14 01:10:00+00:00,292.0,302.0,8.8,10.85,,47.59359,-54.27349
2019-01-14 01:20:00+00:00,294.0,299.0,8.49,9.88,,47.59359,-54.27349
2019-01-14 01:30:00+00:00,299.0,302.0,6.97,7.76,,47.59359,-54.27349
2019-01-14 01:40:00+00:00,290.0,289.0,8.23,9.13,,47.59359,-54.27349
2019-01-14 01:50:00+00:00,296.0,295.0,9.18,10.93,,47.59359,-54.27349
2019-01-14 02:00:00+00:00,290.0,304.0,7.81,9.43,,47.59359,-54.27349
2019-01-14 02:10:00+00:00,290.0,284.0,7.27,8.32,,47.59359,-54.27349
2019-01-14 02:20:00+00:00,292.0,293.0,7.31,8.73,,47.59359,-54.27349
2019-01-14 02:30:00+00:00,289.0,297.0,7.48,9.51,,47.59359,-54.27349
2019-01-14 02:40:00+00:00,308.0,311.0,7.93,9.4,,47.59359,-54.27349
2019-01-14 02:50:00+00:00,293.0,294.0,7.57,8.9,,47.59359,-54.27349
2019-01-14 03:00:00+00:00,299.0,302.0,6.59,7.96,,47.59359,-54.27349
2019-01-14 03:10:00+00:00,300.0,305.0,6.05,6.96,,47.59359,-54.27349
2019-01-14 03:20:00+00:00,286.0,275.0,5.71,7.16,,47.59359,-54.27349
2019-01-14 03:30:00+00:00,290.0,285.0,5.21,5.8,,47.59359,-54.27349
2019-01-14 03:40:00+00:00,287.0,287.0,4.58,5.24,,47.59359,-54.27349
2019-01-14 03:50:00+00:00,303.0,307.0,4.57,5.65,,47.59359,-54.27349
2019-01-14 04:00:00+00:00,309.0,305.0,6.05,6.7,,47.59359,-54.27349
2019-01-14 04:10:00+00:00,316.0,321.0,5.08,6.31,,47.59359,-54.27349
2019-01-14 04:20:00+00:00,323.0,320.0,5.04,5.93,,47.59359,-54.27349
2019-01-14 04:30:00+00:00,318.0,319.0,6.35,6.95,,47.59359,-54.27349
2019-01-14 04:40:00+00:00,312.0,322.0,6.83,7.87,,47.59359,-54.27349
2019-01-14 04:50:00+00:00,315.0,321.0,6.27,7.14,,47.59359,-54.27349
2019-01-14 05:00:00+00:00,315.0,316.0,6.46,7.72,,47.59359,-54.27349
2019-01-14 05:10:00+00:00,310.0,311.0,6.18,7.69,,47.59359,-54.27349
2019-01-14 05:20:00+00:00,307.0,310.0,6.24,7.04,,47.59359,-54.27349
2019-01-14 05:30:00+00:00,303.0,311.0,5.54,7.05,,47.59359,-54.27349
2019-01-14 05:40:00+00:00,303.0,310.0,6.88,7.97,,47.59359,-54.27349
2019-01-14 05:50:00+00:00,292.0,287.0,6.5,7.58,,47.59359,-54.27349
2019-01-14 06:00:00+00:00,295.0,294.0,5.17,5.78,,47.59359,-54.27349
2019-01-14 06:10:00+00:00,296.0,293.0,6.26,7.58,,47.59359,-54.27349
2019-01-14 06:20:00+00:00,305.0,299.0,5.67,6.48,,47.59359,-54.27349
2019-01-14 06:30:00+00:00,299.0,292.0,6.7,7.93,,47.59359,-54.27349
2019-01-14 06:40:00+00:00,290.0,292.0,6.4,7.38,,47.59359,-54.27349
2019-01-14 06:50:00+00:00,284.0,286.0,6.37,7.48,,47.59359,-54.27349
2019-01-14 07:00:00+00:00,290.0,300.0,7.56,8.72,,47.59359,-54.27349
2019-01-14 07:10:00+00:00,289.0,275.0,6.78,8.35,,47.59359,-54.27349
2019-01-14 07:20:00+00:00,284.0,288.0,6.7,8.39,,47.59359,-54.27349
2019-01-14 07:30:00+00:00,289.0,294.0,6.72,8.11,,47.59359,-54.27349
2019-01-14 07:40:00+00:00,288.0,292.0,7.82,8.61,,47.59359,-54.27349
2019-01-14 07:50:00+00:00,284.0,284.0,6.67,7.58,,47.59359,-54.27349
2019-01-14 08:00:00+00:00,288.0,287.0,7.73,8.63,,47.59359,-54.27349
2019-01-14 08:10:00+00:00,287.0,292.0,7.28,8.55,,47.59359,-54.27349
2019-01-14 08:20:00+00:00,285.0,283.0,7.32,8.33,,47.59359,-54.27349
2019-01-14 08:30:00+00:00,280.0,287.0,7.17,8.98,,47.59359,-54.27349
2019-01-14 08:40:00+00:00,284.0,292.0,6.71,8.4,,47.59359,-54.27349
2019-01-14 08:50:00+00:00,280.0,291.0,6.84,8.87,,47.59359,-54.27349
2019-01-14 09:00:00+00:00,283.0,283.0,6.68,7.5,,47.59359,-54.27349
2019-01-14 09:10:00+00:00,277.0,274.0,6.16,6.66,,47.59359,-54.27349
2019-01-14 09:20:00+00:00,285.0,284.0,5.57,6.97,,47.59359,-54.27349
2019-01-14 09:30:00+00:00,283.0,285.0,5.54,6.28,,47.59359,-54.27349
2019-01-14 09:40:00+00:00,289.0,297.0,6.8,7.99,,47.59359,-54.27349
2019-01-14 09:50:00+00:00,284.0,293.0,7.26,8.72,,47.59359,-54.27349
2019-01-14 10:00:00+00:00,275.0,277.0,7.23,8.29,,47.59359,-54.27349
2019-01-14 10:10:00+00:00,296.0,297.0,6.53,7.51,,47.59359,-54.27349
2019-01-14 10:20:00+00:00,274.0,275.0,4.75,5.35,,47.59359,-54.27349
2019-01-14 10:30:00+00:00,287.0,284.0,5.75,7.01,,47.59359,-54.27349
2019-01-14 10:40:00+00:00,283.0,294.0,5.29,6.03,,47.59359,-54.27349
2019-01-14 10:50:00+00:00,296.0,289.0,5.17,5.71,,47.59359,-54.27349
2019-01-14 11:00:00+00:00,287.0,289.0,5.5,6.46,,47.59359,-54.27349
2019-01-14 11:10:00+00:00,294.0,297.0,4.68,5.71,,47.59359,-54.27349
2019-01-14 11:20:00+00:00,294.0,297.0,5.75,6.78,,47.59359,-54.27349
2019-01-14 11:30:00+00:00,294.0,294.0,5.64,6.23,,47.59359,-54.27349
2019-01-14 11:40:00+00:00,307.0,310.0,4.92,5.74,,47.59359,-54.27349
2019-01-14 11:50:00+00:00,295.0,288.0,4.36,5.88,,47.59359,-54.27349
2019-01-14 12:00:00+00:00,273.0,271.0,6.1,7.52,,47.59359,-54.27349
2019-01-14 12:10:00+00:00,282.0,298.0,5.35,7.11,,47.59359,-54.27349
2019-01-14 12:20:00+00:00,278.0,267.0,4.09,5.33,,47.59359,-54.27349
2019-01-14 12:30:00+00:00,287.0,280.0,5.49,6.7,,47.59359,-54.27349
2019-01-14 12:40:00+00:00,273.0,287.0,4.74,6.3,,47.59359,-54.27349
2019-01-14 12:50:00+00:00,281.0,289.0,4.77,6.07,,47.59359,-54.27349
2019-01-14 13:00:00+00:00,289.0,282.0,6.01,7.73,,47.59359,-54.27349
2019-01-14 13:10:00+00:00,300.0,290.0,7.22,8.95,,47.59359,-54.27349
2019-01-14 13:20:00+00:00,303.0,314.0,5.28,6.28,,47.59359,-54.27349
2019-01-14 13:30:00+00:00,279.0,288.0,3.88,5.22,,47.59359,-54.27349
2019-01-14 13:40:00+00:00,303.0,307.0,3.66,5.22,,47.59359,-54.27349
2019-01-14 13:50:00+00:00,284.0,273.0,3.96,5.3,,47.59359,-54.27349
2019-01-14 14:00:00+00:00,275.0,271.0,5.94,7.22,,47.59359,-54.27349
2019-01-14 14:10:00+00:00,285.0,279.0,4.69,6.15,,47.59359,-54.27349
2019-01-14 14:20:00+00:00,292.0,296.0,6.24,7.26,,47.59359,-54.27349
2019-01-14 14:30:00+00:00,299.0,298.0,6.23,6.96,,47.59359,-54.27349
2019-01-14 14:40:00+00:00,274.0,275.0,5.18,5.61,,47.59359,-54.27349
2019-01-14 14:50:00+00:00,298.0,295.0,5.86,6.71,,47.59359,-54.27349
2019-01-14 15:00:00+00:00,292.0,290.0,7.17,7.92,,47.59359,-54.27349
2019-01-14 15:10:00+00:00,295.0,292.0,8.62,9.49,,47.59359,-54.27349
2019-01-14 15:20:00+00:00,299.0,294.0,7.55,8.79,,47.59359,-54.27349
2019-01-14 15:30:00+00:00,299.0,299.0,7.53,8.47,,47.59359,-54.27349
2019-01-14 15:40:00+00:00,295.0,298.0,6.45,7.15,,47.59359,-54.27349
2019-01-14 15:50:00+00:00,299.0,298.0,6.68,8.56,,47.59359,-54.27349
2019-01-14 16:00:00+00:00,301.0,294.0,5.35,6.44,,47.59359,-54.27349
2019-01-14 16:10:00+00:00,299.0,285.0,6.84,8.24,,47.59359,-54.27349
2019-01-14 16:20:00+00:00,298.0,305.0,6.23,7.66,,47.59359,-54.27349
2019-01-14 16:30:00+00:00,298.0,303.0,6.17,6.89,,47.59359,-54.27349
2019-01-14 16:40:00+00:00,264.0,265.0,5.59,6.4,,47.59359,-54.27349
2019-01-14 16:50:00+00:00,282.0,278.0,4.36,5.26,,47.59359,-54.27349
2019-01-14 17:00:00+00:00,285.0,287.0,6.4,7.27,,47.59359,-54.27349
2019-01-14 17:10:00+00:00,267.0,267.0,5.42,5.78,,47.59359,-54.27349
2019-01-14 17:20:00+00:00,282.0,284.0,7.14,7.99,,47.59359,-54.27349
2019-01-14 17:30:00+00:00,287.0,286.0,6.83,8.76,,47.59359,-54.27349
2019-01-14 17:40:00+00:00,293.0,293.0,7.22,8.34,,47.59359,-54.27349
2019-01-14 17:50:00+00:00,293.0,298.0,7.17,8.36,,47.59359,-54.27349
2019-01-14 18:00:00+00:00,284.0,283.0,7.65,9.12,,47.59359,-54.27349
2019-01-14 18:10:00+00:00,278.0,282.0,6.53,7.61,,47.59359,-54.27349
2019-01-14 18:20:00+00:00,277.0,269.0,6.71,8.35,,47.59359,-54.27349
2019-01-14 18:30:00+00:00,288.0,292.0,7.75,9.17,,47.59359,-54.27349
2019-01-14 18:40:00+00:00,288.0,278.0,6.72,7.72,,47.59359,-54.27349
2019-01-14 18:50:00+00:00,275.0,273.0,9.24,10.8,,47.59359,-54.27349
2019-01-14 19:00:00+00:00,286.0,284.0,8.78,10.46,,47.59359,-54.27349
2019-01-14 19:10:00+00:00,292.0,296.0,7.15,8.67,,47.59359,-54.27349
2019-01-14 19:20:00+00:00,284.0,278.0,6.51,9.21,,47.59359,-54.27349
2019-01-14 19:30:00+00:00,279.0,282.0,8.5,10.18,,47.59359,-54.27349
2019-01-14 19:40:00+00:00,285.0,287.0,7.9,9.61,,47.59359,-54.27349
2019-01-14 19:50:00+00:00,283.0,298.0,6.8,8.01,,47.59359,-54.27349
2019-01-14 20:00:00+00:00,280.0,281.0,5.57,6.26,,47.59359,-54.27349
2019-01-14 20:10:00+00:00,299.0,292.0,4.18,5.33,,47.59359,-54.27349
2019-01-14 20:20:00+00:00,280.0,280.0,4.75,5.63,,47.59359,-54.27349
2019-01-14 20:30:00+00:00,287.0,293.0,5.25,6.63,,47.59359,-54.27349
2019-01-14 20:40:00+00:00,275.0,277.0,6.28,7.35,,47.59359,-54.27349
2019-01-14 20:50:00+00:00,282.0,276.0,5.54,6.57,,47.59359,-54.27349
2019-01-14 21:00:00+00:00,284.0,285.0,4.74,5.5,,47.59359,-54.27349
2019-01-14 21:10:00+00:00,280.0,287.0,4.57,5.31,,47.59359,-54.27349
2019-01-14 21:20:00+00:00,270.0,266.0,6.11,7.2,,47.59359,-54.27349
2019-01-14 21:30:00+00:00,274.0,275.0,5.41,7.04,,47.59359,-54.27349
2019-01-14 21:40:00+00:00,268.0,267.0,7.36,8.91,,47.59359,-54.27349
2019-01-14 21:50:00+00:00,280.0,278.0,6.75,8.71,,47.59359,-54.27349
2019-01-14 22:00:00+00:00,289.0,286.0,5.35,6.54,,47.59359,-54.27349
2019-01-14 22:10:00+00:00,280.0,282.0,7.39,8.21,,47.59359,-54.27349
2019-01-14 22:20:00+00:00,297.0,302.0,5.81,7.52,,47.59359,-54.27349
2019-01-14 22:30:00+00:00,284.0,288.0,4.99,6.05,,47.59359,-54.27349
2019-01-14 22:40:00+00:00,283.0,290.0,4.58,5.19,,47.59359,-54.27349
2019-01-14 22:50:00+00:00,281.0,281.0,5.57,6.37,,47.59359,-54.27349
2019-01-14 23:00:00+00:00,339.0,299.0,2.8,5.1,,47.59359,-54.27349
2019-01-14 23:10:00+00:00,357.0,357.0,3.1,4.19,,47.59359,-54.27349
2019-01-14 23:20:00+00:00,354.0,359.0,3.0,3.62,,47.59359,-54.27349
2019-01-14 23:30:00+00:00,354.0,348.0,1.73,2.32,,47.59359,-54.27349
2019-01-14 23:40:00+00:00,305.0,305.0,1.9,2.54,,47.59359,-54.27349
2019-01-14 23:50:00+00:00,313.0,313.0,2.7,3.2,,47.59359,-54.27349
